Weather History for Troy, MI

Change the Weather History Date:

Thursday, December 27, 2012

  Actual Average (KDET) Record (KDET)
Temperature  
Mean Temperature 28 °F -  
Max Temperature 34 °F 32 °F 60 °F (2008)
Min Temperature 21 °F 21 °F 2 °F (1950)
Degree Days  
Heating Degree Days 38    
Moisture  
Dew Point 25 °F    
Average Humidity 80    
Maximum Humidity 94    
Minimum Humidity 61    
Precipitation  
Precipitation 0.00 in - - ()
Sea Level Pressure  
Sea Level Pressure 30.04 in    
Wind  
Wind Speed 8 mph (NNW)    
Max Wind Speed 14 mph    
Max Gust Speed 23 mph    
Visibility 9 miles    
Events Snow    
Averages and records for this station are not official NWS values.
T = Trace of Precipitation, MM = Missing Value Source: NWS Daily Summary

Daily Weather History Graph

Daily Weather History Graph

Search for Another Location

Airport:

Trip Planner

Search our weather history database for the weather conditions in past years. The results will help you decide how hot, cold, wet, or windy it might be!

Date:

Astronomy

Dec. 27, 2012 Rise Set
Actual Time 8:01 AM EST 5:06 PM EST
Civil Twilight 7:29 AM EST 5:38 PM EST
Nautical Twilight 6:54 AM EST 6:14 PM EST
Astronomical Twilight 6:19 AM EST 6:48 PM EST
Moon 4:49 PM EST (12/27) 7:11 AM EST (12/27)
Length of Visible Light 10h 08m
Length of Day
9h 04m
Full, 100% of the Moon is Illuminated
Dec 27
Full
Dec 28
Full
Jan 4
Last Quarter
Jan 11
New
Jan 18
First Quarter

Hourly Weather History & Observations

Time (EST) Temp. Windchill Dew Point Humidity Pressure Visibility Wind Dir Wind Speed Gust Speed Precip Events Conditions
12:14 AM 32.0 °F 23.6 °F 27.9 °F 85% 29.87 in 5.0 mi North 10.4 mph 16.1 mph N/A Snow Light Snow
12:35 AM 32.0 °F 23.6 °F 28.0 °F 85% 29.87 in 7.0 mi NNE 10.4 mph - N/A   Overcast
12:54 AM 32.0 °F 23.6 °F 28.4 °F 87% 29.87 in 7.0 mi North 10.4 mph - N/A   Overcast
1:15 AM 32.0 °F 23.6 °F 28.8 °F 88% 29.88 in 5.0 mi North 10.4 mph - N/A Snow Light Snow
1:35 AM 32.0 °F 24.2 °F 28.9 °F 88% 29.88 in 7.0 mi North 9.2 mph - N/A Snow Light Snow
1:54 AM 32.2 °F 24.4 °F 29.1 °F 88% 29.88 in 10.0 mi North 9.2 mph - N/A Snow Light Snow
2:15 AM 32.7 °F 25.0 °F 29.3 °F 87% 29.88 in 10.0 mi North 9.2 mph - N/A   Overcast
2:34 AM 32.9 °F 24.7 °F 29.7 °F 88% 29.89 in 10.0 mi North 10.4 mph - N/A   Overcast
2:55 AM 32.9 °F 26.7 °F 30.2 °F 90% 29.90 in 3.0 mi North 6.9 mph - N/A Snow Light Snow
3:14 AM 32.7 °F 28.3 °F 30.6 °F 92% 29.91 in 1.8 mi North 4.6 mph - N/A Snow Light Snow
3:35 AM 32.5 °F 28.1 °F 30.9 °F 94% 29.92 in 1.2 mi North 4.6 mph - N/A Snow Light Snow
3:55 AM 32.9 °F - 31.1 °F 93% 29.92 in 3.0 mi Calm Calm - N/A Snow Light Snow
4:14 AM 32.9 °F 28.5 °F 31.3 °F 94% 29.92 in 4.0 mi NNW 4.6 mph - N/A Snow Light Snow
4:55 AM 33.3 °F 26.4 °F 31.5 °F 93% 29.93 in 4.0 mi NNW 8.1 mph - N/A Snow Light Snow
5:14 AM 33.4 °F 25.9 °F 31.1 °F 91% 29.93 in 7.0 mi North 9.2 mph - N/A   Overcast
5:35 AM 33.8 °F 25.8 °F 30.9 °F 89% 29.94 in 7.0 mi North 10.4 mph - N/A Snow Light Snow
5:55 AM 33.8 °F 27.0 °F 30.7 °F 89% 29.95 in 7.0 mi North 8.1 mph 16.1 mph N/A Snow Light Snow
6:14 AM 33.4 °F 26.6 °F 30.7 °F 90% 29.96 in 7.0 mi NNW 8.1 mph 17.3 mph N/A Snow Light Snow
6:35 AM 33.4 °F 26.6 °F 30.2 °F 88% 29.97 in 7.0 mi North 8.1 mph - N/A   Overcast
6:54 AM 33.4 °F 25.9 °F 30.2 °F 88% 29.98 in 7.0 mi NNW 9.2 mph 17.3 mph N/A Snow Light Snow
7:14 AM 33.4 °F 24.8 °F 29.8 °F 87% 29.99 in 10.0 mi North 11.5 mph 19.6 mph N/A   Overcast
7:34 AM 33.8 °F 25.8 °F 29.3 °F 84% 30.00 in 10.0 mi NNW 10.4 mph 16.1 mph N/A   Overcast
7:54 AM 33.8 °F 25.8 °F 29.3 °F 84% 30.01 in 10.0 mi NNW 10.4 mph - N/A   Overcast
8:15 AM 33.3 °F 25.1 °F 29.1 °F 85% 30.02 in 10.0 mi NNW 10.4 mph 16.1 mph N/A   Overcast
8:34 AM 32.9 °F 24.7 °F 28.6 °F 84% 30.03 in 10.0 mi NNW 10.4 mph 17.3 mph N/A   Overcast
8:54 AM 32.9 °F 23.2 °F 28.2 °F 83% 30.04 in 10.0 mi NNW 13.8 mph 20.7 mph N/A   Overcast
9:14 AM 32.2 °F 23.8 °F 28.2 °F 85% 30.05 in 10.0 mi NNW 10.4 mph 20.7 mph N/A   Overcast
9:34 AM 32.0 °F 24.8 °F 27.9 °F 85% 30.06 in 10.0 mi NNW 8.1 mph 18.4 mph N/A   Overcast
9:55 AM 32.0 °F 23.6 °F 27.3 °F 83% 30.06 in 10.0 mi NNW 10.4 mph 18.4 mph N/A   Overcast
10:14 AM 32.0 °F 23.6 °F 26.6 °F 80% 30.07 in 10.0 mi NNW 10.4 mph 17.3 mph N/A   Overcast
10:34 AM 31.8 °F 22.3 °F 26.2 °F 80% 30.07 in 10.0 mi NNW 12.7 mph 23.0 mph N/A   Overcast
10:55 AM 32.0 °F 23.6 °F 25.9 °F 78% 30.08 in 10.0 mi NNW 10.4 mph 19.6 mph N/A   Overcast
11:35 AM 32.2 °F 24.4 °F 25.7 °F 77% 30.08 in 10.0 mi NNW 9.2 mph - N/A   Mostly Cloudy
11:55 AM 32.0 °F 24.2 °F 25.7 °F 78% 30.08 in 10.0 mi WNW 9.2 mph - N/A   Mostly Cloudy
12:14 PM 32.0 °F 23.0 °F 25.5 °F 77% 30.08 in 10.0 mi NW 11.5 mph - N/A   Overcast
12:35 PM 32.4 °F 25.3 °F 24.8 °F 74% 30.08 in 10.0 mi NW 8.1 mph - N/A   Mostly Cloudy
12:55 PM 32.5 °F 24.2 °F 24.3 °F 72% 30.07 in 10.0 mi NNW 10.4 mph - N/A   Scattered Clouds
1:14 PM 32.7 °F 25.0 °F 24.1 °F 71% 30.07 in 10.0 mi NNW 9.2 mph - N/A   Clear
1:35 PM 33.1 °F 26.1 °F 23.5 °F 68% 30.07 in 10.0 mi WNW 8.1 mph - N/A   Clear
1:54 PM 33.4 °F 30.4 °F 23.5 °F 67% 30.07 in 10.0 mi NNW 3.5 mph - N/A   Clear
2:15 PM 34.0 °F 27.2 °F 23.2 °F 65% 30.07 in 10.0 mi NNW 8.1 mph - N/A   Clear
2:35 PM 34.2 °F 26.8 °F 22.1 °F 61% 30.07 in 10.0 mi WNW 9.2 mph - N/A   Clear
2:54 PM 34.0 °F 27.2 °F 22.6 °F 63% 30.08 in 10.0 mi NW 8.1 mph - N/A   Clear
3:15 PM 34.0 °F 27.2 °F 22.8 °F 64% 30.08 in 10.0 mi NW 8.1 mph - N/A   Clear
3:34 PM 33.8 °F 27.0 °F 21.9 °F 62% 30.09 in 10.0 mi NNW 8.1 mph - N/A   Clear
3:55 PM 33.4 °F 29.1 °F 21.6 °F 62% 30.10 in 10.0 mi NW 4.6 mph - N/A   Clear
4:14 PM 33.3 °F 25.7 °F 21.4 °F 62% 30.10 in 10.0 mi NW 9.2 mph - N/A   Clear
4:34 PM 32.7 °F 28.3 °F 21.4 °F 63% 30.10 in 10.0 mi North 4.6 mph - N/A   Clear
4:55 PM 31.8 °F 27.3 °F 20.5 °F 63% 30.11 in 10.0 mi North 4.6 mph - N/A   Clear
5:14 PM 32.2 °F 27.7 °F 20.5 °F 62% 30.11 in 10.0 mi NW 4.6 mph - N/A   Clear
5:34 PM 31.1 °F 26.4 °F 22.1 °F 69% 30.11 in 10.0 mi NW 4.6 mph - N/A   Clear
5:55 PM 30.7 °F 27.3 °F 22.1 °F 70% 30.12 in 10.0 mi WNW 3.5 mph - N/A   Clear
6:14 PM 29.8 °F 24.9 °F 21.9 °F 72% 30.12 in 10.0 mi NW 4.6 mph - N/A   Clear
6:34 PM 29.1 °F 25.4 °F 21.9 °F 74% 30.13 in 10.0 mi WNW 3.5 mph - N/A   Clear
7:35 PM 27.3 °F 22.0 °F 21.6 °F 79% 30.15 in 10.0 mi West 4.6 mph - N/A   Clear
7:55 PM 28.2 °F 24.4 °F 21.4 °F 76% 30.16 in 10.0 mi WNW 3.5 mph - N/A   Clear
8:14 PM 27.0 °F - 21.0 °F 78% 30.17 in 10.0 mi Calm Calm - N/A   Clear
8:35 PM 26.6 °F - 21.4 °F 81% 30.15 in 10.0 mi Calm Calm - N/A   Clear
8:55 PM 26.1 °F - 21.6 °F 83% 30.16 in 10.0 mi Calm Calm - N/A   Clear
9:14 PM 25.3 °F - 21.0 °F 84% 30.16 in 10.0 mi Calm Calm - N/A   Clear
9:35 PM 25.0 °F - 20.8 °F 84% 30.17 in 10.0 mi Calm Calm - N/A   Clear
9:54 PM 24.3 °F - 20.7 °F 86% 30.17 in 10.0 mi Calm Calm - N/A   Clear
10:14 PM 23.5 °F - 20.3 °F 87% 30.16 in 10.0 mi Calm Calm - N/A   Clear
10:35 PM 23.0 °F - 20.3 °F 89% 30.15 in 10.0 mi Calm Calm - N/A   Clear
10:54 PM 22.5 °F - 19.6 °F 89% 30.15 in 10.0 mi Calm Calm - N/A   Clear
11:14 PM 21.9 °F - 19.4 °F 90% 30.15 in 10.0 mi Calm Calm - N/A   Clear
11:34 PM 21.4 °F - 18.9 °F 90% 30.14 in 10.0 mi Calm Calm - N/A   Clear
11:54 PM 22.6 °F 18.0 °F 20.1 °F 90% 30.15 in 10.0 mi WSW 3.5 mph - N/A   Clear